{"data":{"norad_id":69294,"intl_designator":"2026-118AD","name":"KUIPER-00618","alt_names":[],"object_type":"PAYLOAD","status":"ACTIVE","operator":null,"country":"US","launch_date":"2026-05-29","launch_site_code":"AFETR","launch_vehicle":null,"mission":null,"orbit_class":"UNKNOWN","rcs_meters":null,"size_class":null,"mass_kg":null,"dimensions":null,"purposes":[],"wikipedia_slug":null,"has_3d_model":false,"image_url":null,"decayed_at":null,"tle_current":{"epoch":"2026-09-20T04:20:22.518816Z","epoch_age_seconds":57686,"freshness":"FRESH","line1":"1 69294U 26118AD  26263.18081619  .00000131  00000+0  46177-4 0  9994","line2":"2 69294  51.9052 330.6139 0001604 193.9652 166.1266 14.79929268 18368","mean_motion":14.79929268,"eccentricity":0.0001604,"inclination_deg":51.9052,"raan_deg":330.6139,"arg_perigee_deg":193.9652,"mean_anomaly_deg":166.1266,"bstar":4.6177e-5,"rev_number":1836,"period_min":97.301947541455,"perigee_km":628.42337761956,"apogee_km":630.67144277835,"semimajor_km":7007.684410199,"source":"CELESTRAK","updated_at":"2026-09-20T09:00:24.808978Z"}}}